STARLINK-37269, 68621

Orbit data source: Space-Track

STARLINK-37269, 68621 is a payload satellite owned by SpaceX/Seattle (US) in SSO that was launched on Sun, 05 Apr 2026 UTC via an FALCON 9 launch vehicle from the Air Force Western Test Range (AFWTR). Payload-class satellites include a variety of spacecraft equipped with specific instruments for various scientific and technological missions. These include communications satellites like Starlink; space stations such as the ISS; scientific satellites like the Hubble; Earth observation satellites from companies like Planet Labs, Umbra, and HawkEye 360; GPS; miniature CubeSats for education and research; and military/defense satellites.

Loading next visibility...
Identifier
68621, 2026-073V
Orbit
SSO
Country
Flag of USUS
Related business
Manufacturer
SpaceX/Seattle
Mission
Operational spacecraft
Bus & Motor
STARLINK V2MO, Unknown motor
Mass
575 kg wet, ~530 kg dry
Launch date (UTC)
2026-04-05 (3 months ago)
Launch vehicle
FALCON 9
Launch site
Air Force Western Test Range (AFWTR)
Object type
Payload
Rocket body
Debris
Shape & HBR
Unknown shape, 2.6 m
Radar Cross Section
Large (>1 m²)

Expand to show TLE details & history
Last TLE update: 11 hours ago

TLE from 11 hours ago
0 STARLINK-37269
1 68621U 26073V   26171.45491102  .00015968  00000-0  49568-3 0  9998
2 68621  97.2882  10.7587 0002102 110.0327 250.1142 15.33458534 11635
Epoch: 2026-06-20T10:55Z
TLE epoch observation values (Epoch: 2026-06-20T10:55:04.312Z)
Latitude
-0.00002°
Longitude
-61.67856°
Altitude
469.105 km
Speed
7.631 km/s
True Right ascension
00h 43m 02s
True Declination
0° 00' 00"
Sunlit
Object was in daylight at epoch
Visualization orbit readout
Latitude
Unknown
Longitude
Unknown
Altitude
Unknown
Speed
Unknown
Apparent Right ascension
Unknown
Apparent Declination
Unknown
Sunlit
N/A
Visualization observer readout
Local Sidereal Time
08:33:28
Azimuth
Unknown
Elevation
Unknown
Doppler factor
Unknown
Orbital elements
Apogee altitude
463.884 km
Perigee altitude
461.008 km
Semi-major axis
6,840.583 km
Eccentricity
0.00021
Inclination
97.2882°
RAAN
10.7587°
Arg. of periapsis
110.0327°
True anomaly
250.09155°
Mean anomaly
250.1142°
Eccentric anomaly
250.10288°
Mean motion
3.83622 °/min
Orbital period
93.84 mins
BSTAR
0.00049568
Loading maneuver chart data...
Computing Atmospheric mass density...
Loading historical data...
Loading historical data...
Loading historical data...
Loading historical data...
Loading historical data...
Loading historical data...
Loading historical data...

Documentation

Showing up to 5 results
|